Flag Weather past 2 weeks in São José do Rio Preto, São Paulo, Brazil

Now
70 °F

Clear.


Feels Like: 70 °F
Forecast: 67 / 90 °F
Wind: 6 mph from Northwest

Location: Leite Lopes / Ribeir

Current Time: Nov 23, 2014 at 2:05:54 AM

Latest Report: Nov 23, 2014 at 1:00 AM


Visibility: 10 mi

Pressure: 29.92 "Hg

Humidity: 88%

Dew point: 66 °F

Location of São José do Rio PretoLocation

Historic Weather in São José do Rio Preto — Graph

°F

São José do Rio Preto temperature yesterday

Maximum temperature yesterday: 95 °F (at 1:00 PM)
Minimum temperature yesterday: 70 °F (at 10:00 PM)
Average temperature yesterday: 79 °F

Past Weeks' High & Low Weather Summary

 TemperatureHumidityPressure
High95 °F (Nov 22, 1:00 PM)94% (Nov 8, 5:00 AM)30.07 "Hg (Nov 8, 5:00 AM)
Low63 °F (Nov 16, 6:00 AM)21% (Nov 11, 4:00 PM)29.71 "Hg (Nov 13, 5:00 PM)
Average78 °F55%29.89 "Hg
* Reported Nov 8 1:00 AM — Nov 23 1:00 AM, São José do Rio Preto, Weather by CustomWeather, © 2014

Note: Actual official high and low records may vary slightly from our data, if they occured in-between our weather recording intervals... More about our weather records

Advertising

São José do Rio Preto weather history for previous 24 hours

 ConditionsComfort  
Time TempWeatherWind HumidityBarometerVisibility
1:00 AM
Nov 23
70 °FClear.6 mph88%29.92 "Hg10 mi
12:00 AM70 °FClear.3 mph88%29.95 "Hg10 mi
11:00 PM
Nov 22
70 °FClear.5 mph88%29.95 "Hg10 mi
10:00 PM70 °FClear.5 mph88%29.95 "Hg10 mi
9:00 PM72 °FClear.6 mph83%29.95 "Hg10 mi
8:00 PM73 °FClear.8 mph83%29.92 "Hg10 mi
7:00 PM75 °FScattered clouds.9 mph74%29.92 "HgN/A
6:00 PM77 °FPartly sunny.12 mph65%29.92 "HgN/A
5:00 PM75 °FBroken clouds.13 mph69%29.89 "HgN/A
4:00 PM75 °FLight rain. Broken clouds.21 mph74%29.89 "Hg3 mi
3:46 PM77 °FLight rain. Partly sunny.17 mph69%29.89 "Hg4 mi
3:00 PM79 °FThunderstorms. Partly sunny.12 mph61%N/A3 mi
2:05 PM81 °FStrong thunderstorms. Broken clouds.14 mph62%N/A1 mi
2:00 PM86 °FThunderstorms. Partly sunny.12 mph49%29.86 "HgN/A
1:00 PM95 °FScattered clouds.14 mph26%29.89 "HgN/A
12:00 PM91 °FScattered clouds.7 mph34%29.92 "HgN/A
11:00 AM88 °FSunny.7 mph38%29.95 "Hg10 mi
10:00 AM82 °FSunny.3 mph48%29.95 "Hg10 mi
9:00 AM82 °FSunny.6 mph51%29.92 "Hg10 mi
8:00 AM81 °FSunny.7 mph54%29.92 "Hg10 mi
7:00 AM75 °FSunny.7 mph65%29.92 "Hg10 mi
6:00 AM75 °FClear.5 mph65%29.89 "Hg10 mi
5:00 AM77 °FClear.3 mph61%29.89 "Hg10 mi
4:00 AM77 °FClear.7 mph61%29.89 "Hg10 mi
3:00 AM77 °FClear.2 mph61%29.92 "Hg10 mi
2:00 AM77 °FClear.3 mph61%29.92 "Hg10 mi
Weather by CustomWeather, © 2014

See weather overviewHow to use our weather pages